Location: Winthrop
(48.4780°N, 120.1850°W)
Time: 02:50:44
(UTC-07:00)

Transit 2A - Pass Details

Date: 20 June 2024
Orbit: 591 x 960 km, 66.7° (Epoch: 23 July)

Event Time Altitude Azimuth Distance (km) Brightness Sun altitude
Rises 01:24:42 0° 323° (NW) 3,507 10.2 -17.9°
Reaches altitude 10° 01:27:09 10° 321° (NW) 2,605 9.4 -17.9°
Maximum altitude 01:33:15 70° 240° (WSW) 1,006 6.4 -17.8°
Enters shadow 01:37:10 24° 162° (SSE) 1,850 7.5 -17.7°
